Total_Precipitation_Accumulation
0.01 0.02 0.03 0.06 0.11 0.26 0.35 0.30 0.37 0.42 0.57 0.61 0.64 0.74 0.78 0.84 1.28 2.08 1.33 0.83 0.56 0.40 0.38 0.47 0.45 0.42 0.47 0.47 0.51 0.53 0.57 0.56 0.54 0.52 0.47 0.46 0.49 0.50 0.55 0.66 0.75 0.87 0.94 0.92 0.99 1.05 1.02 0.94 0.87
0.02 0.02 0.04 0.07 0.17 0.33 0.42 0.44 0.52 0.48 0.55 0.61 0.65 0.71 0.70 0.69 0.66 0.75 0.80 0.80 0.62 0.48 0.58 0.55 0.44 0.43 0.48 0.49 0.54 0.56 0.60 0.64 0.65 0.65 0.59 0.54 0.56 0.61 0.63 0.72 0.80 0.94 1.11 1.08 1.00 1.02 1.03 0.94 0.90
0.02 0.03 0.06 0.13 0.20 0.31 0.50 0.54 0.60 0.56 0.63 0.64 0.75 0.81 0.90 0.90 0.74 0.71 0.75 0.72 0.65 0.56 0.67 0.62 0.49 0.48 0.48 0.55 0.54 0.59 0.64 0.69 0.73 0.77 0.82 0.76 0.62 0.63 0.67 0.78 0.88 0.99 1.11 1.31 1.17 1.05 1.09 0.96 0.94
0.02 0.05 0.08 0.16 0.21 0.24 0.38 0.48 0.55 0.66 0.82 0.73 0.76 0.87 0.92 0.89 0.81 0.79 0.82 0.75 0.60 0.56 0.60 0.59 0.57 0.56 0.55 0.58 0.60 0.68 0.76 0.80 0.79 0.83 0.90 0.97 0.80 0.75 0.76 0.90 1.00 1.06 1.09 1.23 1.43 1.27 1.32 1.23 1.05
0.03 0.09 0.14 0.18 0.24 0.29 0.38 0.45 0.58 0.79 0.84 0.75 0.78 1.05 1.24 1.18 0.97 0.86 0.78 0.72 0.63 0.61 0.63 0.74 0.78 0.82 0.83 0.78 0.78 0.84 0.88 0.93 0.94 0.90 0.91 1.03 0.97 0.89 0.94 1.04 1.12 1.19 1.23 1.29 1.34 1.26 1.40 1.27 1.10
0.06 0.11 0.18 0.23 0.30 0.30 0.37 0.52 0.64 0.78 0.93 0.86 0.87 1.23 1.71 1.68 1.47 1.23 0.92 0.91 0.84 0.72 0.80 0.95 1.10 1.19 1.11 1.03 0.99 0.99 0.97 0.95 0.99 1.09 1.04 1.06 1.13 1.11 1.05 1.13 1.24 1.38 1.45 1.48 1.46 1.37 1.38 1.35 1.27
0.07 0.10 0.17 0.24 0.31 0.40 0.38 0.44 0.69 0.91 1.09 1.18 1.03 1.30 1.71 1.86 1.68 1.43 1.39 1.30 1.17 1.12 1.22 1.21 1.13 1.13 1.15 1.14 1.09 1.13 1.13 1.08 1.09 1.19 1.24 1.16 1.19 1.25 1.27 1.36 1.40 1.42 1.41 1.44 1.52 1.62 1.53 1.38 1.35
0.04 0.09 0.15 0.20 0.33 0.43 0.44 0.52 0.70 0.94 1.17 1.18 1.01 1.35 1.83 1.84 1.61 1.66 1.87 1.80 1.84 2.01 2.23 1.72 1.36 1.20 1.09 1.11 1.21 1.27 1.41 1.37 1.27 1.28 1.38 1.39 1.40 1.45 1.50 1.54 1.55 1.50 1.49 1.48 1.62 1.73 1.76 1.63 1.50
0.05 0.08 0.13 0.22 0.33 0.43 0.46 0.59 0.64 0.66 0.96 0.94 0.87 1.09 1.62 1.64 1.55 1.85 2.26 2.52 2.48 2.70 2.87 2.16 1.71 1.48 1.37 1.38 1.41 1.49 1.64 1.73 1.58 1.47 1.51 1.63 1.75 2.00 2.00 1.79 1.82 1.70 1.73 1.73 1.79 1.85 1.85 1.92 1.90
0.06 0.12 0.16 0.20 0.30 0.42 0.50 0.55 0.68 0.76 0.97 0.98 0.88 0.96 1.20 1.64 1.85 2.13 2.48 3.11 3.11 2.77 2.59 2.34 2.14 1.84 1.68 1.63 1.82 1.92 1.85 1.89 1.75 1.89 1.82 1.96 2.44 2.61 2.29 2.23 2.16 2.02 2.06 2.16 2.18 2.14 2.09 1.97 1.96
0.07 0.17 0.18 0.22 0.32 0.50 0.59 0.64 0.82 1.06 1.19 1.19 1.16 1.28 1.62 1.95 2.11 2.39 2.69 3.16 3.40 3.28 2.80 2.51 2.26 2.17 2.04 2.13 2.32 2.43 2.49 2.51 2.31 2.42 2.38 2.46 2.61 2.57 2.55 2.55 2.42 2.43 2.42 2.64 2.75 2.55 2.27 2.09 2.09
0.08 0.13 0.15 0.28 0.35 0.43 0.61 0.67 0.78 1.04 1.31 1.37 1.39 1.57 2.01 2.27 2.48 2.79 3.00 3.30 3.36 3.45 3.33 2.79 2.61 2.71 2.93 2.95 2.86 2.80 2.79 2.87 2.79 2.79 2.62 2.73 2.83 2.84 2.76 2.76 2.63 2.73 2.68 2.89 2.93 2.88 2.75 2.56 2.35
0.11 0.19 0.19 0.26 0.33 0.44 0.50 0.67 0.75 0.97 1.01 1.19 1.44 1.78 2.02 2.00 2.43 2.91 3.02 3.32 3.43 3.49 3.40 3.08 3.24 3.36 3.44 3.46 3.41 3.15 3.07 3.30 3.30 3.23 3.11 3.09 3.00 2.89 2.90 2.86 2.85 2.74 2.89 3.01 3.09 2.93 2.83 2.75 2.60
0.12 0.13 0.17 0.23 0.27 0.38 0.45 0.60 0.77 1.01 1.10 1.22 1.45 1.62 1.78 2.00 2.48 2.92 3.16 3.54 3.44 3.43 3.65 3.62 3.71 3.62 3.53 3.60 3.75 3.79 3.49 3.60 3.81 3.88 3.73 3.52 3.36 3.27 3.26 3.33 3.28 3.03 3.05 3.17 3.31 3.21 3.10 2.85 2.70
0.14 0.14 0.19 0.25 0.25 0.28 0.39 0.64 0.76 0.94 1.08 1.13 1.28 1.34 1.50 1.98 2.39 2.95 3.32 3.67 3.63 3.63 3.70 3.77 3.66 3.82 3.94 3.95 3.91 3.98 3.90 3.83 3.98 4.15 4.17 3.85 3.56 3.62 3.62 3.74 3.68 3.35 3.29 3.41 3.56 3.57 3.47 3.09 2.80
0.17 0.19 0.29 0.31 0.30 0.31 0.43 0.84 1.00 0.96 0.96 1.09 1.15 1.19 1.41 1.97 2.43 2.80 3.16 3.51 3.54 3.68 4.02 3.97 3.57 3.94 4.15 4.11 4.05 3.84 3.92 4.16 4.34 4.35 4.48 4.19 3.80 3.68 3.84 3.72 3.53 3.47 3.57 3.82 4.02 3.96 3.88 3.68 3.42
0.22 0.27 0.35 0.38 0.36 0.38 0.49 0.86 1.18 1.08 0.99 1.04 1.02 1.09 1.30 1.64 2.18 2.56 2.98 3.39 3.64 3.88 4.36 4.16 3.88 4.04 4.16 4.21 4.27 4.01 4.08 4.40 4.53 4.64 4.65 4.24 3.83 3.77 4.01 4.03 3.99 3.88 3.93 4.04 3.89 4.08 3.97 4.07 3.88
0.26 0.33 0.44 0.47 0.45 0.44 0.58 0.91 1.20 1.30 1.22 1.15 1.11 1.23 1.45 1.51 1.75 2.10 2.66 3.24 3.59 4.15 4.83 4.42 4.02 4.00 4.30 4.30 4.16 4.12 4.25 4.54 4.82 4.86 4.67 4.40 4.26 4.11 4.29 4.24 4.29 4.33 4.41 4.28 4.24 4.31 4.10 3.98 3.90
0.25 0.34 0.44 0.55 0.51 0.54 0.69 1.00 1.24 1.43 1.38 1.21 1.28 1.50 1.51 1.50 1.68 1.92 2.49 3.19 3.58 4.09 4.53 4.52 4.33 4.37 4.44 4.48 4.26 4.38 4.57 4.85 5.12 5.05 4.97 4.88 4.78 4.71 4.80 4.81 4.78 4.62 4.53 4.41 4.30 4.28 4.18 3.92 3.75
0.21 0.31 0.42 0.56 0.54 0.60 0.73 1.04 1.40 1.53 1.51 1.46 1.45 1.68 1.62 1.66 1.89 2.21 2.75 3.12 3.49 3.83 4.07 4.37 4.50 4.54 4.30 4.63 4.94 5.21 5.51 5.52 5.78 6.05 6.10 5.93 5.64 5.45 5.30 5.29 4.97 4.66 4.51 4.37 4.24 4.15 3.98 3.63 3.53
0.19 0.24 0.37 0.47 0.50 0.56 0.74 1.26 1.47 1.61 1.60 1.65 1.74 1.98 1.92 1.95 2.16 2.57 2.94 3.08 3.30 3.63 3.98 4.31 4.63 4.75 4.67 5.10 5.61 6.09 6.45 6.33 6.31 6.31 6.31 6.25 5.83 5.50 5.30 5.08 4.89 4.69 4.51 4.34 4.28 4.19 4.05 3.71 3.52
0.18 0.15 0.22 0.32 0.47 0.67 0.68 1.25 1.54 1.77 1.80 1.68 1.88 2.07 2.12 1.93 1.98 2.33 2.68 3.13 3.12 3.37 3.77 4.08 4.50 4.91 5.20 5.58 6.02 6.56 6.92 7.13 6.93 6.55 6.26 5.91 5.47 5.13 4.76 4.59 4.62 4.52 4.31 4.10 3.80 3.68 3.69 3.62 3.43
0.16 0.13 0.19 0.30 0.41 0.63 0.70 1.08 1.57 1.83 1.92 1.78 1.91 1.96 2.06 1.93 1.90 2.11 2.26 2.63 2.90 3.13 3.46 3.89 4.25 4.64 5.24 5.99 6.56 7.04 7.40 7.43 6.88 6.26 5.66 5.23 4.87 4.52 4.26 4.16 4.27 4.20 3.94 3.76 3.49 3.28 3.13 3.12 3.18
0.12 0.20 0.29 0.40 0.53 0.87 0.74 1.04 1.75 1.91 1.98 2.03 1.97 1.91 1.98 1.96 1.97 2.12 2.25 2.55 2.77 2.87 3.12 3.60 4.14 4.48 5.01 5.76 6.38 6.72 6.92 6.86 6.42 5.77 5.20 4.77 4.33 3.95 3.61 3.39 3.34 3.27 3.10 3.00 2.97 2.92 2.87 2.85 2.90
0.15 0.37 0.69 0.87 0.95 0.90 0.72 1.06 1.84 2.06 1.98 1.97 2.00 2.06 2.15 2.17 2.17 2.16 2.15 2.25 2.51 2.66 2.92 3.37 3.82 4.28 4.62 5.06 5.59 5.65 5.74 5.51 5.14 4.92 4.58 4.08 3.67 3.29 2.91 2.68 2.60 2.55 2.52 2.47 2.52 2.57 2.59 2.54 2.61
0.15 0.33 0.80 1.01 1.01 0.99 1.04 1.62 2.27 2.24 2.09 2.03 1.91 1.90 2.02 2.08 2.02 2.05 2.01 2.20 2.51 2.77 2.99 3.22 3.50 3.85 4.19 4.32 4.45 4.33 4.20 4.12 3.99 3.80 3.43 3.07 2.81 2.62 2.48 2.34 2.20 2.16 2.19 2.19 2.32 2.32 2.23 2.22 2.27
0.17 0.24 0.37 0.55 0.73 1.10 1.50 2.03 2.54 2.54 2.32 2.10 1.98 1.92 1.98 1.91 1.84 1.91 1.99 2.18 2.41 2.71 2.88 3.04 3.16 3.28 3.32 3.30 3.34 3.31 3.24 3.11 3.10 3.01 2.70 2.43 2.28 2.11 2.06 2.01 1.96 1.88 1.85 1.83 1.84 1.83 1.84 1.91 1.92
0.16 0.21 0.33 0.63 1.02 1.35 1.68 2.32 2.85 2.92 2.62 2.11 1.90 1.80 1.87 1.94 1.89 1.91 2.03 2.22 2.17 2.20 2.39 2.60 2.70 2.80 2.76 2.66 2.58 2.67 2.63 2.47 2.33 2.21 2.12 1.98 1.87 1.76 1.75 1.69 1.66 1.68 1.69 1.62 1.53 1.49 1.51 1.59 1.67
0.23 0.30 0.39 0.66 0.83 1.18 1.86 2.66 2.70 2.99 2.84 2.47 2.12 1.87 1.94 2.04 1.99 1.93 2.03 2.09 1.93 1.79 1.80 1.97 2.10 2.29 2.34 2.25 2.20 2.23 2.19 2.12 1.97 1.87 1.83 1.81 1.69 1.60 1.54 1.52 1.51 1.45 1.41 1.39 1.42 1.38 1.39 1.51 1.55
0.26 0.33 0.44 0.83 0.94 0.95 1.75 2.84 2.54 2.61 2.76 2.63 2.37 2.16 2.05 2.04 2.03 1.91 1.92 1.97 1.89 1.75 1.65 1.73 1.84 1.84 1.86 1.87 1.96 2.03 1.95 1.89 1.82 1.77 1.77 1.76 1.61 1.53 1.48 1.47 1.40 1.23 1.16 1.24 1.32 1.31 1.29 1.41 1.43